EW6899 Weather Reports


time (UTC)temp
C
wind
direction
speed
KPH
gust
KPH
rain 1hr
cm
rain 24hr
cm
rain mn
cm
humidity
%
barometer
mb
20260509053557 11 150 8.0 16.1 0.00 0.00 0.00 88 1004.3
20260509053105 11 187 8.0 12.9 0.00 0.00 0.00 87 1004.3
20260509052557 11 137 9.7 14.5 0.00 0.00 0.00 87 1004.4
20260509052055 11 143 6.4 12.9 0.00 0.00 0.00 87 1004.4
20260509051558 11 156 6.4 12.9 0.00 0.00 0.00 87 1004.4
20260509051055 11 143 6.4 11.3 0.00 0.00 0.00 87 1004.5
20260509050554 11 161 4.8 12.9 0.00 0.00 0.00 87 1004.5
20260509050058 10 152 8.0 12.9 0.00 0.00 0.00 87 1004.5
20260509045552 10 171 4.8 11.3 0.00 0.00 0.00 86 1004.5
20260509045052 10 139 6.4 14.5 0.00 0.00 0.00 85 1004.5
20260509044553 10 151 8.0 14.5 0.00 0.00 0.00 85 1004.5
20260509044050 10 167 6.4 12.9 0.00 0.00 0.00 85 1004.8
20260509043548 10 145 8.0 12.9 0.00 0.00 0.00 85 1004.8
20260509043047 9 150 8.0 12.9 0.00 0.00 0.00 83 1004.8
20260509042545 8 137 6.4 9.7 0.00 0.00 0.00 81 1004.7
20260509042044 8 144 6.4 9.7 0.00 0.00 0.00 80 1004.7
20260509041543 8 152 6.4 9.7 0.00 0.00 0.00 78 1004.7
20260509041042 8 138 6.4 9.7 0.00 0.00 0.00 78 1004.9
20260509040539 7 154 4.8 8.0 0.00 0.00 0.00 77 1004.9
20260509040039 7 133 3.2 6.4 0.00 0.00 0.00 77 1004.9
20260509035539 7 127 4.8 8.0 0.00 0.00 0.00 78 1005.0
20260509035039 7 127 4.8 8.0 0.00 0.00 0.00 79 1005.0
20260509034544 7 128 4.8 8.0 0.00 0.00 0.00 79 1005.0
20260509034038 7 128 6.4 8.0 0.00 0.00 0.00 78 1005.1
20260509033537 7 109 4.8 8.0 0.00 0.00 0.00 79 1005.1
20260509033037 7 138 4.8 8.0 0.00 0.00 0.00 79 1005.1
20260509032537 7 136 6.4 8.0 0.00 0.00 0.00 79 1005.4
20260509032037 7 133 4.8 8.0 0.00 0.00 0.00 79 1005.4
20260509031542 7 134 4.8 6.4 0.00 0.00 0.00 79 1005.4
20260509031040 7 140 3.2 6.4 0.00 0.00 0.00 78 1005.4
20260509030539 7 140 4.8 6.4 0.00 0.00 0.00 77 1005.4
20260509030036 7 140 3.2 6.4 0.00 0.00 0.00 76 1005.4
20260509025536 7 140 3.2 6.4 0.00 0.00 0.00 76 1005.5
20260509025036 7 140 1.6 4.8 0.00 0.00 0.00 76 1005.5
20260509024536 7 142 1.6 8.0 0.00 0.00 0.00 75 1005.5
20260509024037 8 135 3.2 8.0 0.00 0.00 0.00 74 1005.6
20260509023536 8 133 4.8 6.4 0.00 0.00 0.00 72 1005.6
20260509023045 8 129 1.6 4.8 0.00 0.00 0.00 72 1005.6
20260509022535 8 129 0.0 4.8 0.00 0.00 0.00 71 1005.6
20260509022036 8 129 3.2 4.8 0.00 0.00 0.00 71 1005.6
20260509021536 8 129 3.2 4.8 0.00 0.00 0.00 72 1005.6
20260509021035 8 129 3.2 4.8 0.00 0.00 0.00 73 1005.6
20260509020535 8 129 1.6 4.8 0.00 0.00 0.00 73 1005.6
20260509020035 8 129 1.6 4.8 0.00 0.00 0.00 73 1005.6
20260509015535 8 129 3.2 6.4 0.00 0.00 0.00 72 1005.6
20260509015036 8 129 3.2 6.4 0.00 0.00 0.00 70 1005.6
20260509014536 9 129 4.8 6.4 0.00 0.00 0.00 70 1005.6
20260509014037 9 117 3.2 6.4 0.00 0.00 0.00 68 1005.6
20260509013534 10 116 3.2 6.4 0.00 0.00 0.00 67 1005.6
20260509013055 10 116 3.2 6.4 0.00 0.00 0.00 66 1005.6
20260509012535 10 100 1.6 4.8 0.00 0.00 0.00 65 1005.5
20260509012034 11 100 3.2 4.8 0.00 0.00 0.00 63 1005.5
20260509011536 11 100 0.0 0.0 0.00 0.00 0.00 62 1005.5
20260509011033 11 100 0.0 1.6 0.00 0.00 0.00 61 1005.4
20260509010533 12 100 0.0 1.6 0.00 0.00 0.00 58 1005.4
20260509010035 12 100 0.0 3.2 0.00 0.00 0.00 56 1005.4
20260509005533 13 328 1.6 4.8 0.00 0.00 0.00 52 1005.3
20260509005033 13 333 1.6 4.8 0.00 0.00 0.00 52 1005.3
20260509004535 14 333 3.2 4.8 0.00 0.00 0.00 47 1005.3
20260509004033 14 333 3.2 9.7 0.00 0.00 0.00 44 1005.2
20260509003532 15 330 3.2 9.7 0.00 0.00 0.00 43 1005.2
20260509003034 15 342 4.8 11.3 0.00 0.00 0.00 42 1005.2
20260509002534 15 331 4.8 12.9 0.00 0.00 0.00 40 1005.1
20260509002031 15 329 8.0 12.9 0.00 0.00 0.00 40 1005.1
20260509001532 15 328 8.0 12.9 0.00 0.00 0.00 40 1005.1
20260509001032 15 306 6.4 11.3 0.00 0.00 0.00 38 1005.2
20260509000531 16 333 8.0 14.5 0.00 0.00 0.00 39 1005.2
20260509000031 16 299 8.0 16.1 0.00 0.00 0.00 37 1005.2
20260508235531 16 310 8.0 16.1 0.00 0.00 0.00 37 1005.2
20260508235030 16 312 9.7 17.7 0.00 0.00 0.00 36 1005.2
20260508234531 16 312 9.7 17.7 0.00 0.00 0.00 36 1005.2
20260508234035 17 270 9.7 17.7 0.00 0.00 0.00 35 1005.4
20260508233530 17 320 8.0 16.1 0.00 0.00 0.00 35 1005.4
20260508233033 17 281 9.7 16.1 0.00 0.00 0.00 36 1005.4
20260508232530 17 288 9.7 20.9 0.00 0.00 0.00 34 1005.1
20260508232029 17 299 11.3 20.9 0.00 0.00 0.00 34 1005.1
20260508231529 17 260 8.0 17.7 0.00 0.00 0.00 34 1005.1
20260508231029 17 286 11.3 17.7 0.00 0.00 0.00 34 1005.2
20260508230528 17 288 9.7 17.7 0.00 0.00 0.00 34 1005.2
20260508230047 17 255 8.0 17.7 0.00 0.00 0.00 33 1005.2
20260508225529 17 309 9.7 16.1 0.00 0.00 0.00 33 1005.3
20260508225027 17 291 9.7 19.3 0.00 0.00 0.00 32 1005.3
20260508224553 18 322 12.9 20.9 0.00 0.00 0.00 34 1005.3
20260508224028 17 272 12.9 20.9 0.00 0.00 0.00 33 1005.2
20260508223530 18 304 12.9 19.3 0.00 0.00 0.00 34 1005.2
20260508223033 18 277 8.0 16.1 0.00 0.00 0.00 35 1005.2
20260508222527 18 341 11.3 20.9 0.00 0.00 0.00 34 1005.2
20260508222029 18 308 9.7 20.9 0.00 0.00 0.00 34 1005.2
20260508221527 18 284 6.4 19.3 0.00 0.00 0.00 33 1005.2
20260508221027 18 333 9.7 19.3 0.00 0.00 0.00 33 1005.2
20260508220525 18 281 11.3 17.7 0.00 0.00 0.00 37 1005.2
20260508220026 18 355 1.6 17.7 0.00 0.00 0.00 37 1005.2
20260508215528 18 219 11.3 17.7 0.00 0.00 0.00 36 1005.3
20260508215026 18 195 8.0 19.3 0.00 0.00 0.00 38 1005.3
20260508214525 18 247 8.0 22.5 0.00 0.00 0.00 39 1005.3
20260508214028 18 295 6.4 20.9 0.00 0.00 0.00 43 1005.3
20260508213524 18 183 11.3 20.9 0.00 0.00 0.00 37 1005.3
20260508213023 18 236 6.4 12.9 0.00 0.00 0.00 37 1005.3
20260508212527 18 225 4.8 17.7 0.00 0.00 0.00 39 1005.5
20260508212022 18 250 12.9 17.7 0.00 0.00 0.00 34 1005.5
20260508211525 18 287 6.4 20.9 0.00 0.00 0.00 35 1005.5
20260508211025 18 306 11.3 20.9 0.00 0.00 0.00 37 1005.6
20260508210522 18 234 11.3 19.3 0.00 0.00 0.00 40 1005.6
20260508210023 18 287 12.9 22.5 0.00 0.00 0.00 36 1005.6
20260508205521 17 214 6.4 22.5 0.00 0.00 0.00 40 1005.7
20260508205021 18 196 8.0 19.3 0.00 0.00 0.00 40 1005.7
20260508204522 18 244 9.7 19.3 0.00 0.00 0.00 39 1005.7
20260508204023 17 188 8.0 25.7 0.00 0.00 0.00 37 1005.9
20260508203519 17 181 14.5 25.7 0.00 0.00 0.00 40 1005.9
20260508203019 18 243 9.7 20.9 0.00 0.00 0.00 45 1005.9
20260508202519 17 173 9.7 20.9 0.00 0.00 0.00 41 1006.2
20260508202019 17 156 6.4 20.9 0.00 0.00 0.00 42 1006.2
20260508201520 17 173 14.5 20.9 0.00 0.00 0.00 42 1006.2
20260508201018 17 197 9.7 20.9 0.00 0.00 0.00 39 1006.3
20260508200518 18 195 8.0 22.5 0.00 0.00 0.00 39 1006.3
20260508200017 18 324 11.3 20.9 0.00 0.00 0.00 40 1006.3
20260508195521 18 312 9.7 22.5 0.00 0.00 0.00 44 1006.6
20260508195017 17 266 11.3 20.9 0.00 0.00 0.00 38 1006.6
20260508194515 17 241 8.0 20.9 0.00 0.00 0.00 42 1006.6
20260508194015 17 188 12.9 27.4 0.00 0.00 0.00 42 1006.7
20260508193514 17 193 16.1 38.6 0.00 0.00 0.00 40 1006.7
20260508193014 17 237 11.3 27.4 0.00 0.00 0.00 43 1006.7
20260508192515 17 205 9.7 27.4 0.00 0.00 0.00 41 1006.9
20260508192014 17 174 9.7 16.1 0.00 0.00 0.00 42 1006.9
20260508191512 17 260 6.4 25.7 0.00 0.00 0.00 43 1006.9
20260508191013 17 279 14.5 25.7 0.00 0.00 0.00 43 1007.3
20260508190513 16 272 12.9 27.4 0.00 0.00 0.00 42 1007.3
20260508190019 16 242 17.7 27.4 0.00 0.00 0.00 41 1007.3
20260508185513 17 205 6.4 24.1 0.00 0.00 0.00 43 1007.3
20260508185010 17 204 12.9 24.1 0.00 0.00 0.00 42 1007.3
20260508184510 17 214 11.3 19.3 0.00 0.00 0.00 41 1007.3
20260508184008 17 201 12.9 20.9 0.00 0.00 0.00 41 1007.5
20260508183507 16 212 6.4 16.1 0.00 0.00 0.00 45 1007.5
20260508183007 16 227 9.7 20.9 0.00 0.00 0.00 42 1007.5
20260508182506 16 281 11.3 20.9 0.00 0.00 0.00 42 1007.8
20260508182005 16 237 8.0 19.3 0.00 0.00 0.00 44 1007.8
20260508181514 16 260 4.8 16.1 0.00 0.00 0.00 43 1007.8
20260508181005 16 249 8.0 16.1 0.00 0.00 0.00 42 1007.9
20260508180504 16 248 6.4 16.1 0.00 0.00 0.00 43 1007.9
20260508180006 16 245 0.0 16.1 0.00 0.00 0.00 43 1007.9
20260508175504 16 227 3.2 16.1 0.00 0.00 0.00 40 1008.4
20260508175004 16 216 3.2 20.9 0.00 0.00 0.00 45 1008.4
20260508174502 16 262 12.9 20.9 0.00 0.00 0.00 41 1008.4
20260508174002 16 270 14.5 22.5 0.00 0.00 0.00 42 1008.5
20260508173502 16 282 12.9 22.5 0.00 0.00 0.00 43 1008.5
20260508173002 15 289 11.3 22.5 0.00 0.00 0.00 42 1008.5
20260508172503 15 243 8.0 19.3 0.00 0.00 0.00 40 1008.5
20260508172100 15 234 12.9 20.9 0.00 0.00 0.00 42 1008.5
20260508171628 16 212 9.7 20.9 0.00 0.00 0.00 44 1008.5
20260508171059 15 256 8.0 16.1 0.00 0.00 0.00 47 1008.7
20260508170558 15 241 6.4 12.9 0.00 0.00 0.00 47 1008.7
20260508170059 15 221 6.4 14.5 0.00 0.00 0.00 47 1008.7
20260508165557 15 197 9.7 20.9 0.00 0.00 0.00 45 1009.0
20260508165056 15 188 9.7 20.9 0.00 0.00 0.00 46 1009.0
20260508164603 15 162 8.0 16.1 0.00 0.00 0.00 45 1009.0
20260508164056 15 212 6.4 16.1 0.00 0.00 0.00 47 1009.3
20260508163556 15 197 3.2 11.3 0.00 0.00 0.00 48 1009.3
20260508163058 15 291 3.2 19.3 0.00 0.00 0.00 52 1009.3
20260508162557 15 164 12.9 17.7 0.00 0.00 0.00 51 1009.2
20260508162054 15 178 14.5 19.3 0.00 0.00 0.00 48 1009.2
20260508161602 15 152 1.6 12.9 0.00 0.00 0.00 46 1009.2
20260508161053 15 258 4.8 14.5 0.00 0.00 0.00 47 1009.4
20260508160555 15 249 6.4 14.5 0.00 0.00 0.00 48 1009.4
20260508160053 15 203 8.0 14.5 0.00 0.00 0.00 46 1009.4
20260508155552 14 164 6.4 14.5 0.00 0.00 0.00 48 1009.4
20260508155050 14 185 8.0 14.5 0.00 0.00 0.00 53 1009.4
20260508154552 14 177 4.8 9.7 0.00 0.00 0.00 54 1009.4
20260508154049 14 144 1.6 11.3 0.00 0.00 0.00 53 1009.4
20260508153548 14 291 3.2 14.5 0.00 0.00 0.00 55 1009.4
20260508153048 14 133 6.4 14.5 0.00 0.00 0.00 53 1009.4
20260508152547 14 181 8.0 14.5 0.00 0.00 0.00 55 1009.4
20260508152047 14 297 4.8 9.7 0.00 0.00 0.00 56 1009.4
20260508151553 14 306 3.2 12.9 0.00 0.00 0.00 56 1009.4
20260508151045 13 245 3.2 12.9 0.00 0.00 0.00 56 1009.5
20260508150547 13 249 6.4 11.3 0.00 0.00 0.00 57 1009.5
20260508150044 13 317 3.2 9.7 0.00 0.00 0.00 58 1009.5
20260508145543 13 279 4.8 9.7 0.00 0.00 0.00 58 1009.6
20260508145041 13 239 3.2 9.7 0.00 0.00 0.00 59 1009.6
20260508144541 13 270 6.4 9.7 0.00 0.00 0.00 59 1009.6
20260508144039 12 223 1.6 6.4 0.00 0.00 0.00 56 1009.9
20260508143538 12 133 1.6 11.3 0.00 0.00 0.00 59 1009.9
20260508143036 12 238 3.2 11.3 0.00 0.00 0.00 59 1009.9
20260508142535 12 216 3.2 6.4 0.00 0.00 0.00 65 1010.0
20260508142035 12 167 1.6 4.8 0.00 0.00 0.00 65 1010.0
20260508141536 12 299 1.6 4.8 0.00 0.00 0.00 71 1010.0
20260508141032 11 290 0.0 4.8 0.00 0.00 0.00 74 1010.1
20260508140530 11 308 0.0 4.8 0.00 0.00 0.00 80 1010.1
20260508140029 11 308 3.2 4.8 0.00 0.00 0.00 80 1010.1
20260508135528 11 274 1.6 4.8 0.00 0.00 0.00 82 1010.1
20260508135026 10 297 3.2 4.8 0.00 0.00 0.00 84 1010.1
20260508134526 10 261 0.0 4.8 0.00 0.00 0.00 86 1010.1
20260508134024 10 261 0.0 4.8 0.00 0.00 0.00 87 1010.1
20260508133525 9 170 0.0 3.2 0.00 0.00 0.00 89 1010.1
20260508133030 9 153 0.0 6.4 0.00 0.00 0.00 89 1010.1
20260508132521 9 153 3.2 6.4 0.00 0.00 0.00 90 1010.1
20260508132025 9 265 0.0 3.2 0.00 0.00 0.00 90 1010.1
20260508131524 9 136 0.0 4.8 0.00 0.00 0.00 91 1010.1
20260508131020 9 152 1.6 4.8 0.00 0.00 0.00 93 1010.2
20260508130520 8 173 1.6 4.8 0.00 0.00 0.00 94 1010.2
20260508130017 8 322 1.6 4.8 0.00 0.00 0.00 94 1010.2
20260508125516 8 188 0.0 4.8 0.00 0.00 0.00 95 1010.3
20260508125018 8 188 3.2 8.0 0.00 0.00 0.00 95 1010.3
20260508124522 7 187 1.6 8.0 0.00 0.00 0.00 95 1010.3
20260508124013 7 192 4.8 8.0 0.00 0.00 0.00 95 1010.4
20260508123512 7 191 4.8 8.0 0.00 0.00 0.00 95 1010.4
20260508123013 7 195 4.8 9.7 0.00 0.00 0.00 95 1010.4
20260508122509 7 186 4.8 8.0 0.00 0.00 0.00 95 1010.2
20260508122009 7 187 3.2 6.4 0.00 0.00 0.00 95 1010.2
20260508121509 7 189 3.2 6.4 0.00 0.00 0.00 95 1010.2
20260508121009 7 179 3.2 4.8 0.00 0.00 0.00 95 1010.1
20260508120510 7 164 0.0 3.2 0.00 0.00 0.00 96 1010.1
20260508120007 6 164 0.0 1.6 0.00 0.00 0.00 96 1010.1
20260508115506 6 164 0.0 3.2 0.00 0.00 0.00 96 1010.2
20260508115007 5 164 0.0 4.8 0.00 0.00 0.00 95 1010.2
20260508114505 5 164 1.6 4.8 0.00 0.00 0.00 95 1010.2
20260508114005 5 164 1.6 4.8 0.00 0.00 0.00 95 1009.8
20260508113505 4 164 1.6 6.4 0.00 0.00 0.00 95 1009.8
20260508113005 4 164 3.2 6.4 0.00 0.00 0.00 95 1009.8
20260508112505 3 156 1.6 4.8 0.00 0.00 0.00 95 1009.7
20260508112004 3 156 0.0 4.8 0.00 0.00 0.00 95 1009.7
20260508111504 3 155 3.2 4.8 0.00 0.00 0.00 95 1009.7
20260508111004 3 150 1.6 3.2 0.00 0.00 0.00 95 1009.6
20260508110503 3 150 0.0 6.4 0.00 0.00 0.00 95 1009.6
20260508110008 3 150 3.2 6.4 0.00 0.00 0.00 95 1009.6
20260508105506 3 154 1.6 4.8 0.00 0.00 0.00 95 1009.6
20260508105003 3 150 1.6 6.4 0.00 0.00 0.00 95 1009.6
20260508104504 3 152 3.2 6.4 0.00 0.00 0.00 95 1009.6
20260508104003 2 131 3.2 6.4 0.00 0.00 0.00 95 1009.4
20260508103503 2 131 1.6 4.8 0.00 0.00 0.00 95 1009.4
20260508103002 2 118 1.6 4.8 0.00 0.00 0.00 95 1009.4
20260508102502 2 118 1.6 6.4 0.00 0.00 0.00 95 1009.2
20260508102002 1 118 4.8 6.4 0.00 0.00 0.00 94 1009.2
20260508101502 1 118 1.6 4.8 0.00 0.00 0.00 94 1009.2
20260508101002 1 118 3.2 8.0 0.00 0.00 0.00 94 1009.2
20260508100501 1 118 4.8 8.0 0.00 0.00 0.00 94 1009.2
20260508100001 1 118 4.8 6.4 0.00 0.00 0.00 94 1009.2
20260508095501 2 118 4.8 6.4 0.00 0.00 0.00 94 1009.5
20260508095101 2 118 4.8 6.4 0.00 0.00 0.00 94 1009.5
20260508094615 1 118 3.2 8.0 0.00 0.00 0.00 94 1009.5
20260508094100 1 118 4.8 8.0 0.00 0.00 0.00 94 1009.6
20260508093559 1 118 4.8 6.4 0.00 0.00 0.00 94 1009.6
20260508093057 1 118 1.6 4.8 0.00 0.00 0.00 94 1009.6
20260508092557 1 118 0.0 4.8 0.00 0.00 0.00 93 1009.6
20260508092058 2 118 1.6 4.8 0.00 0.00 0.00 94 1009.6
20260508091654 2 118 3.2 4.8 0.00 0.00 0.00 93 1009.6
20260508091054 2 120 1.6 4.8 0.00 0.00 0.00 94 1009.6
20260508090555 2 120 1.6 4.8 0.00 0.00 0.00 94 1009.6
20260508090106 2 120 1.6 6.4 0.00 0.00 0.00 94 1009.6
20260508085553 2 120 3.2 6.4 0.00 0.00 0.00 94 1009.6
20260508085056 2 120 3.2 6.4 0.00 0.00 0.00 93 1009.6
20260508084552 2 120 3.2 6.4 0.00 0.00 0.00 93 1009.6
20260508084052 2 120 3.2 8.0 0.00 0.00 0.00 94 1009.7
20260508083551 2 120 3.2 8.0 0.00 0.00 0.00 93 1009.7
20260508083050 2 116 4.8 6.4 0.00 0.00 0.00 93 1009.7
20260508082549 2 116 3.2 4.8 0.00 0.00 0.00 93 1009.7
20260508082051 2 116 3.2 4.8 0.00 0.00 0.00 93 1009.7
20260508081551 2 116 1.6 3.2 0.00 0.00 0.00 93 1009.7
20260508081048 2 116 1.6 3.2 0.00 0.00 0.00 93 1009.6
20260508080548 2 116 1.6 3.2 0.00 0.00 0.00 93 1009.6
20260508080053 2 116 1.6 6.4 0.00 0.00 0.00 93 1009.6
20260508075548 2 116 3.2 6.4 0.00 0.00 0.00 93 1009.6
20260508075049 2 106 3.2 6.4 0.00 0.00 0.00 93 1009.6
20260508074548 2 101 3.2 4.8 0.00 0.00 0.00 93 1009.6
20260508074047 2 82 3.2 4.8 0.00 0.00 0.00 92 1009.8
20260508073547 2 82 3.2 4.8 0.00 0.00 0.00 92 1009.8
20260508073049 2 7 0.0 3.2 0.00 0.00 0.00 92 1009.8
20260508072545 2 7 1.6 3.2 0.00 0.00 0.00 92 1009.8
20260508072043 2 7 0.0 1.6 0.00 0.00 0.00 92 1009.8
20260508071545 2 7 0.0 3.2 0.00 0.00 0.00 92 1009.8
20260508071041 2 7 1.6 3.2 0.00 0.00 0.00 91 1010.0
20260508070617 3 7 1.6 3.2 0.00 0.00 0.00 91 1010.0
20260508065538 3 7 0.0 3.2 0.00 0.00 0.00 91 1010.1
20260508065037 3 7 1.6 3.2 0.00 0.00 0.00 91 1010.1
20260508064540 3 7 0.0 1.6 0.00 0.00 0.00 90 1010.1
20260508064035 3 7 0.0 1.6 0.00 0.00 0.00 91 1010.1
20260508063534 3 7 0.0 1.6 0.00 0.00 0.00 91 1010.1
20260508063100 4 7 0.0 0.0 0.00 0.00 0.00 90 1010.1
20260508062531 4 7 0.0 0.0 0.00 0.00 0.00 90 1010.1
20260508062030 4 7 0.0 3.2 0.00 0.00 0.00 91 1010.1
20260508061532 5 7 0.0 6.4 0.00 0.00 0.00 91 1010.1
20260508061030 5 7 3.2 6.4 0.00 0.00 0.00 91 1010.3
20260508060533 5 6 1.6 9.7 0.00 0.00 0.00 91 1010.3
20260508060029 5 7 3.2 12.9 0.00 0.00 0.00 91 1010.3
20260508055526 5 350 9.7 12.9 0.00 0.00 0.00 91 1010.1
20260508055026 5 204 0.0 3.2 0.00 0.00 0.00 91 1010.1
20260508054526 5 204 0.0 4.8 0.00 0.00 0.00 90 1010.1
20260508054024 5 183 1.6 4.8 0.00 0.00 0.00 89 1010.1